Tracking 33744 objects as of 12-Apr-2026
HD Live streaming from Space Station
objects crossing your sky now

COSMOS 684

Track COSMOS 684 now!
10-day predictions
COSMOS 684 is classified as:


NORAD ID: 7442
Int'l Code: 1974-072H
Perigee: 1,421.8 km
Apogee: 1,473.8 km
Inclination: 74.0 °
Period: 114.7 minutes
Semi major axis: 7818 km
RCS: 0.701 m2 (medium)
Launch date: September 19, 1974
Source: Commonwealth of Independent States (former USSR) (CIS)
Launch site: PLESETSK MISSILE AND SPACE COMPLEX (PKMTR)
Your satellite tracking list
Your tracking list is empty




NASA's NSSDC Master Catalog

Two Line Element Set (TLE):
1  7442U 74072H   26102.12672906 -.00000012  00000-0  27416-4 0  9999
2  7442  74.0340 151.8933 0033307 281.4885 107.1051 12.55721589363450
Source of the keplerian elements: AFSPC